| time (UTC) | temp C | wind direction | speed KPH | gust KPH | rain 1hr cm | rain 24hr cm | rain mn cm | humidity % | barometer mb |
| 20260508213056 | 12 | 216 | 0.0 | 0.0 | 0.00 | 0.00 | 0.00 | 83 | 1013.1 |
| 20260508211548 | 12 | 216 | 0.0 | 0.0 | 0.00 | 0.00 | 0.00 | 84 | 1012.9 |
| 20260508210041 | 12 | 216 | 0.0 | 0.0 | 0.00 | 0.00 | 0.00 | 84 | 1012.7 |
| 20260508204554 | 12 | 216 | 0.0 | 0.0 | 0.00 | 0.00 | 0.00 | 84 | 1012.7 |
| 20260508203042 | 12 | 216 | 0.0 | 0.0 | 0.00 | 0.00 | 0.00 | 84 | 1012.6 |
| 20260508201525 | 13 | 216 | 0.0 | 0.0 | 0.00 | 0.00 | 0.00 | 83 | 1012.5 |
| 20260508200005 | 13 | 216 | 0.0 | 0.0 | 0.00 | 0.00 | 0.00 | 83 | 1012.4 |
| 20260508194558 | 13 | 216 | 0.0 | 0.0 | 0.00 | 0.00 | 0.00 | 83 | 1012.3 |
| 20260508193058 | 13 | 216 | 0.0 | 0.0 | 0.00 | 0.00 | 0.00 | 82 | 1012.1 |
| 20260508191548 | 13 | 216 | 0.0 | 0.0 | 0.00 | 0.00 | 0.00 | 81 | 1011.8 |
| 20260508190059 | 13 | 216 | 0.0 | 0.0 | 0.00 | 0.00 | 0.00 | 80 | 1011.5 |
| 20260508184600 | 14 | 210 | 0.0 | 0.0 | 0.00 | 0.00 | 0.00 | 81 | 1011.2 |
| 20260508183100 | 14 | 180 | 0.0 | 0.0 | 0.00 | 0.00 | 0.00 | 78 | 1010.9 |
| 20260508181543 | 15 | 180 | 0.0 | 0.0 | 0.00 | 0.00 | 0.00 | 76 | 1010.8 |
| 20260508180052 | 15 | 180 | 0.0 | 0.0 | 0.00 | 0.00 | 0.00 | 76 | 1010.7 |
| 20260508174600 | 16 | 179 | 0.0 | 0.0 | 0.00 | 0.00 | 0.00 | 76 | 1010.6 |
| 20260508173042 | 16 | 179 | 0.0 | 0.0 | 0.00 | 0.00 | 0.00 | 74 | 1010.5 |
| 20260508171559 | 16 | 179 | 0.0 | 0.0 | 0.00 | 0.00 | 0.00 | 74 | 1010.5 |
| 20260508170048 | 17 | 179 | 0.0 | 0.0 | 0.00 | 0.00 | 0.00 | 73 | 1010.5 |
| 20260508164606 | 18 | 178 | 0.0 | 0.0 | 0.00 | 0.00 | 0.00 | 70 | 1010.5 |
| 20260508163115 | 18 | 178 | 0.0 | 0.0 | 0.00 | 0.00 | 0.00 | 68 | 1010.3 |
| 20260508161550 | 18 | 178 | 0.0 | 0.0 | 0.00 | 0.00 | 0.00 | 60 | 1010.4 |
| 20260508160042 | 18 | 178 | 0.0 | 0.0 | 0.00 | 0.00 | 0.00 | 57 | 1010.4 |
| 20260508154600 | 18 | 129 | 0.0 | 0.0 | 0.00 | 0.00 | 0.00 | 58 | 1010.3 |
| 20260508153041 | 18 | 98 | 0.0 | 0.0 | 0.00 | 0.00 | 0.00 | 55 | 1010.3 |
| 20260508151536 | 19 | 117 | 0.0 | 0.0 | 0.00 | 0.00 | 0.00 | 50 | 1010.4 |
| 20260508150033 | 19 | 125 | 0.0 | 0.0 | 0.00 | 0.00 | 0.00 | 52 | 1010.4 |
| 20260508144536 | 18 | 98 | 0.0 | 0.0 | 0.00 | 0.00 | 0.00 | 52 | 1010.5 |
| 20260508143029 | 19 | 163 | 0.0 | 0.0 | 0.00 | 0.00 | 0.00 | 54 | 1010.7 |
| 20260508141529 | 19 | 123 | 0.0 | 0.0 | 0.00 | 0.00 | 0.00 | 54 | 1010.7 |
| 20260508140034 | 19 | 126 | 0.0 | 0.0 | 0.00 | 0.00 | 0.00 | 55 | 1010.8 |
| 20260508134522 | 19 | 306 | 0.0 | 0.0 | 0.00 | 0.05 | 0.00 | 52 | 1010.9 |
| 20260508133011 | 19 | 336 | 0.0 | 0.0 | 0.00 | 0.05 | 0.00 | 56 | 1011.1 |
| 20260508131509 | 19 | 103 | 0.0 | 1.6 | 0.00 | 0.05 | 0.00 | 57 | 1011.3 |
| 20260508130008 | 19 | 87 | 0.0 | 0.0 | 0.00 | 0.05 | 0.00 | 59 | 1011.2 |
| 20260508124502 | 18 | 119 | 0.0 | 9.7 | 0.00 | 0.18 | 0.00 | 61 | 1011.4 |
| 20260508123005 | 18 | 92 | 0.0 | 1.6 | 0.00 | 0.18 | 0.00 | 61 | 1011.4 |
| 20260508121600 | 19 | 57 | 0.0 | 0.0 | 0.00 | 0.18 | 0.00 | 60 | 1011.5 |
| 20260508120057 | 18 | 157 | 0.0 | 0.0 | 0.00 | 0.18 | 0.00 | 56 | 1011.6 |
| 20260508114553 | 18 | 360 | 0.0 | 0.0 | 0.00 | 0.43 | 0.00 | 58 | 1011.7 |
| 20260508113055 | 18 | 67 | 0.0 | 1.6 | 0.00 | 0.43 | 0.00 | 60 | 1011.7 |
| 20260508111550 | 18 | 117 | 0.0 | 1.6 | 0.00 | 0.43 | 0.00 | 61 | 1011.7 |
| 20260508110100 | 18 | 111 | 0.0 | 1.6 | 0.00 | 0.43 | 0.00 | 62 | 1011.8 |
| 20260508104546 | 17 | 133 | 0.0 | 3.2 | 0.00 | 0.43 | 0.00 | 63 | 1012.0 |
| 20260508103041 | 17 | 65 | 0.0 | 0.0 | 0.00 | 0.43 | 0.00 | 60 | 1012.0 |
| 20260508101547 | 17 | 45 | 0.0 | 0.0 | 0.00 | 0.43 | 0.00 | 64 | 1012.2 |
| 20260508100037 | 17 | 126 | 0.0 | 1.6 | 0.00 | 0.43 | 0.00 | 68 | 1012.3 |
| 20260508094533 | 16 | 71 | 0.0 | 1.6 | 0.00 | 0.43 | 0.00 | 70 | 1012.5 |
| 20260508093043 | 16 | 96 | 0.0 | 0.0 | 0.00 | 0.43 | 0.00 | 72 | 1012.5 |
| 20260508091526 | 15 | 17 | 0.0 | 0.0 | 0.00 | 0.43 | 0.00 | 75 | 1012.6 |
| 20260508090030 | 15 | 82 | 0.0 | 0.0 | 0.00 | 0.43 | 0.00 | 79 | 1012.7 |
| 20260508084519 | 15 | 75 | 0.0 | 1.6 | 0.00 | 0.43 | 0.00 | 81 | 1012.6 |
| 20260508083024 | 15 | 140 | 0.0 | 1.6 | 0.00 | 0.43 | 0.00 | 84 | 1012.8 |
| 20260508081515 | 14 | 128 | 0.0 | 1.6 | 0.00 | 0.43 | 0.00 | 84 | 1012.8 |
| 20260508080012 | 13 | 126 | 0.0 | 0.0 | 0.00 | 0.43 | 0.00 | 85 | 1012.8 |
| 20260508074515 | 13 | 111 | 0.0 | 0.0 | 0.00 | 0.43 | 0.00 | 86 | 1012.8 |
| 20260508073013 | 13 | 122 | 0.0 | 0.0 | 0.00 | 0.43 | 0.00 | 86 | 1012.8 |
| 20260508071509 | 13 | 82 | 0.0 | 0.0 | 0.00 | 0.43 | 0.00 | 86 | 1012.8 |
| 20260508070007 | 13 | 117 | 0.0 | 0.0 | 0.00 | 0.43 | 0.00 | 86 | 1012.7 |
| 20260508064511 | 12 | 109 | 0.0 | 0.0 | 0.00 | 0.43 | 0.00 | 88 | 1012.8 |
| 20260508063003 | 12 | 145 | 0.0 | 0.0 | 0.00 | 0.43 | 0.00 | 89 | 1012.7 |
| 20260508061606 | 12 | 37 | 0.0 | 0.0 | 0.00 | 0.43 | 0.00 | 92 | 1012.5 |
| 20260508060054 | 11 | 136 | 0.0 | 0.0 | 0.00 | 0.43 | 0.00 | 92 | 1012.6 |
| 20260508054621 | 11 | 136 | 0.0 | 0.0 | 0.00 | 0.43 | 0.00 | 92 | 1012.6 |
| 20260508053051 | 11 | 136 | 0.0 | 0.0 | 0.00 | 0.43 | 0.00 | 93 | 1012.4 |
| 20260508051551 | 10 | 348 | 0.0 | 0.0 | 0.00 | 0.43 | 0.00 | 95 | 1012.5 |
| 20260508050050 | 10 | 347 | 0.0 | 0.0 | 0.00 | 0.43 | 0.00 | 95 | 1012.6 |
| 20260508044553 | 10 | 347 | 0.0 | 0.0 | 0.00 | 0.43 | 0.00 | 94 | 1012.5 |
| 20260508043039 | 10 | 346 | 0.0 | 0.0 | 0.00 | 0.43 | 0.00 | 94 | 1012.3 |
| 20260508041549 | 10 | 346 | 0.0 | 0.0 | 0.00 | 0.43 | 0.00 | 94 | 1012.2 |
| 20260508040043 | 10 | 346 | 0.0 | 0.0 | 0.00 | 0.43 | 0.00 | 94 | 1012.1 |
| 20260508034605 | 10 | 346 | 0.0 | 0.0 | 0.00 | 0.43 | 0.00 | 94 | 1012.2 |
| 20260508033051 | 10 | 267 | 0.0 | 0.0 | 0.00 | 0.43 | 0.00 | 94 | 1012.3 |
| 20260508031558 | 10 | 267 | 0.0 | 0.0 | 0.00 | 0.43 | 0.00 | 94 | 1012.2 |
| 20260508030005 | 10 | 267 | 0.0 | 0.0 | 0.00 | 0.43 | 0.00 | 94 | 1012.3 |
| 20260508024602 | 10 | 267 | 0.0 | 0.0 | 0.00 | 0.43 | 0.00 | 94 | 1012.3 |
| 20260508023049 | 10 | 267 | 0.0 | 0.0 | 0.00 | 0.43 | 0.00 | 94 | 1012.4 |
| 20260508021543 | 10 | 267 | 0.0 | 0.0 | 0.00 | 0.43 | 0.00 | 94 | 1012.3 |
| 20260508020054 | 10 | 267 | 0.0 | 0.0 | 0.00 | 0.43 | 0.00 | 93 | 1012.3 |
| 20260508014550 | 10 | 267 | 0.0 | 0.0 | 0.00 | 0.43 | 0.00 | 93 | 1012.4 |
| 20260508013038 | 10 | 267 | 0.0 | 0.0 | 0.00 | 0.43 | 0.00 | 94 | 1012.4 |
| 20260508011600 | 10 | 267 | 0.0 | 0.0 | 0.00 | 0.43 | 0.00 | 94 | 1012.4 |
| 20260508010048 | 10 | 267 | 0.0 | 0.0 | 0.00 | 0.43 | 0.00 | 94 | 1012.4 |
| 20260508004541 | 10 | 267 | 0.0 | 0.0 | 0.00 | 0.43 | 0.00 | 94 | 1012.3 |
| 20260508003024 | 10 | 267 | 0.0 | 0.0 | 0.00 | 0.43 | 0.00 | 94 | 1012.1 |
| 20260508001552 | 10 | 267 | 0.0 | 0.0 | 0.00 | 0.43 | 0.00 | 93 | 1012.3 |
| 20260508000044 | 10 | 267 | 0.0 | 0.0 | 0.00 | 0.43 | 0.00 | 93 | 1012.3 |
| 20260507234537 | 10 | 267 | 0.0 | 0.0 | 0.00 | 0.43 | 0.00 | 92 | 1012.3 |
| 20260507233013 | 10 | 267 | 0.0 | 0.0 | 0.00 | 0.43 | 0.00 | 92 | 1012.4 |
| 20260507231501 | 11 | 267 | 0.0 | 0.0 | 0.00 | 0.43 | 0.00 | 93 | 1012.4 |
| 20260507230046 | 10 | 267 | 0.0 | 0.0 | 0.00 | 0.43 | 0.00 | 93 | 1012.4 |
| 20260507224555 | 10 | 267 | 0.0 | 0.0 | 0.00 | 0.43 | 0.00 | 93 | 1012.3 |
| 20260507223053 | 10 | 267 | 0.0 | 0.0 | 0.00 | 0.43 | 0.00 | 92 | 1012.2 |
| 20260507221551 | 11 | 267 | 0.0 | 0.0 | 0.00 | 0.43 | 0.00 | 92 | 1012.2 |
| 20260507220041 | 11 | 268 | 0.0 | 0.0 | 0.00 | 0.43 | 0.00 | 93 | 1012.2 |
| 20260507214555 | 11 | 268 | 0.0 | 0.0 | 0.00 | 0.43 | 0.43 | 93 | 1012.3 |